Location: Ar Ranvel
(48.3000°N, 4.8833°W)
Time: 09:38:55
(UTC+00:00)

Cosmos 1455 Rocket - Pass Details

Date: 16 June 2021
Orbit: 604 x 629 km, 82.5° (Epoch: 03 August)

Event Time Altitude Azimuth Distance (km) Brightness Sun altitude
Rises 22:03:24 0° 346° (NNW) 2,925 8.1 -12.0°
Reaches altitude 10° 22:05:40 10° 342° (NNW) 2,015 7.1 -12.2°
Maximum altitude 22:10:01 53° 266° (W) 781 3.7 -12.6°
Enters shadow 22:14:02 12° 191° (S) 1,884 5.1 -12.9°
